TJS-6

Last updated on Sun Oct 06 2024 00:02:42 GMT+0000 (Coordinated Universal Time)

1 47613U 21010A 24279.57340654 .00000053 00000+0 00000+0 0 9999 2 47613 0.1745 266.0021 0003471 316.8096 176.8389 1.00270709 13591
UTC large
Height (km)
Speed (km/s)
/
Latitude / Longitude
Inclination (degrees)
Orbital Period (minutes)
Azimuth
Elevation
Range (km)
Doppler Factor

Next 0 passes for location: London (51.5072 / 0.1276)

Sorry there are no passes over London.